Tracking 19164 objects as of 21-May-2018
HD Live streaming from Space Station
objects crossing your sky now

NOAA 16 DEB

Track NOAA 16 DEB now!
10-day predictions


NORAD ID: 41500
Int'l Code: 2000-055LY
Perigee: 794.0 km
Apogee: 862.5 km
Inclination: 99.0 °
Period: 101.3 minutes
Semi major axis: 7199 km
RCS: Unknown
Launch date: September 21, 2000
Source: United States (US)
Launch site: AIR FORCE WESTERN TEST RANGE (AFWTR)

Note: This is SATELLITE DEBRIS
aabbcc
Your satellite tracking list
Your tracking list is empty




NASA's NSSDC Master Catalog

Two Line Element Set (TLE):
1 41500U 00055LY  18140.20444257 +.00000901 +00000-0 +42976-3 0  9993
2 41500 098.9531 234.5852 0047616 075.6489 284.9967 14.21249448113974
Source of the keplerian elements: AFSPC